Location: Killam
(52.7910°N, 111.8608°W)
Time: 16:19:41
(UTC+00:00)

Vanguard 2 Rocket - Pass Details

Date: 17 February 2026
Orbit: 553 x 3286 km, 32.9° (Epoch: 11 March)

Event Time Altitude Azimuth Distance (km) Brightness Sun altitude
Rises 23:06:17 0° 254° (WSW) 6,740 12.7 12.1°
Reaches altitude 10° 23:12:12 10° 245° (WSW) 5,320 13.0 11.4°
Maximum altitude 23:23:01 26° 197° (SSW) 3,230 10.7 10.1°
Drops below altitude 10° 23:30:23 10° 146° (SE) 3,520 9.9 9.1°
Sets 23:33:23 0° 133° (SE) 4,142 10.1 8.8°
